Location: Bannatyne
(13.0833°N, 59.5333°W)
Time: 06:24:32
(UTC+00:00)

Vanguard 2 Rocket - Pass Details

Date: 20 January 2020
Orbit: 554 x 3326 km, 32.9° (Epoch: 07 April)

Event Time Altitude Azimuth Distance (km) Brightness Sun altitude
Rises 16:42:55 0° 300° (WNW) 5,417 10.8 55.8°
Reaches altitude 10° 16:45:54 10° 300° (WNW) 4,718 10.6 55.6°
Maximum altitude 17:00:44 82° 215° (SW) 3,014 10.9 54.4°
Drops below altitude 10° 17:21:23 10° 129° (SE) 6,250 11.4 52.3°
Sets 17:26:05 0° 128° (SE) 7,171 11.5 51.8°
